STARLINK-5487 (55652 NORAD) Tracking and Keplerian Element Data

This shows tracking and keplerian element data for the satellite.

Feedback or suggestion? Click here.




ElementValue
Catalog55652
NameSTARLINK-5487
Epoch Orbit625
Epoch Day85.1712562
Epoch Year2023
RAAN47.5947
Inclination70.0021
Eccentricity0.0003368
Argument of Perigee271.3912
Mean Anonmoly88.6898
Mean Motion15.69954663
Decay Rate9.82E-05
L11 55652U 23021AA 23085.17125620 .00009820 00000+0 83236-4 0 9997
L22 55652 70.0021 47.5947 0003368 271.3912 88.6898 15.69954663 6250



Live tracking and technical data element details for STARLINK-5487 (NORAD 55652). STARLINK-5487 can be tracked NOW for your location showing map with azimuth and elevation plus other details from your city location.







IsCatalogInMostPopularTable: catalog: 55652, numindb: 2
Update: records affected: 1



GetName: 55652 STARLINK-5487

Hit Count: updated at: Tue, 28 Mar 2023 03:22:32 GMT